Location: Ancienville
(49.2179°N, 3.2145°E)
Time: 07:43:41
(UTC+00:00)

Daily predictions for brighter satellites

Satellite Brightness Start Highest point End
(mag) Time Altitude Azimuth Time Altitude Azimuth Time Altitude Azimuth
ATLAS 3B R/B 3.2 19:53:21 10° NW 20:01:14 75° NE 20:09:02 10° SE
BREEZE-M DEB (TANK) 4.1 19:59:16 10° SSW 20:02:28 33° SE 20:09:17 10° E
Aureole 3 Rocket 3.9 20:02:55 10° NNE 20:06:08 30° ENE 20:10:09 10° SE
Cosmos 1980 3.9 20:00:48 10° SSW 20:06:26 83° WNW 20:12:08 10° NNE
Cosmos 923 Rocket 4.3 20:02:18 10° S 20:07:23 49° ESE 20:12:32 10° NNE
USA 306 3.9 20:04:04 10° WNW 20:07:32 39° N 20:11:14 10° ENE
SPOT 5 3.0 20:03:37 10° SSE 20:08:11 57° ENE 20:12:35 10° N
Cosmos 1464 Rocket 4.1 20:05:49 10° N 20:12:11 89° E 20:18:26 10° S
Meteor 2-2 Rocket 4.4 20:06:39 10° S 20:12:39 73° E 20:18:39 10° NNE
Okean O Rocket 2.8 20:12:43 10° S 20:16:57 43° W 20:21:12 10° NNW
Terra 2.5 20:14:23 10° SE 20:18:47 41° ENE 20:23:12 10° N
USA 234 4.4 20:12:48 10° ENE 20:18:58 46° N 20:25:09 10° WNW
Cosmos 1656 Rocket 4.1 20:16:45 10° NNW 20:22:04 51° NE 20:27:24 10° SE
Cosmos 1371 Rocket 4.3 20:17:27 10° NNW 20:22:45 60° ENE 20:28:02 10° SE
ERS-1 Rocket 3.3 20:19:23 10° SE 20:24:16 55° ENE 20:29:11 10° N
MOS 1 4.4 20:19:19 10° SSE 20:25:00 81° WSW 20:30:42 10° NNW
ATLAS 2AS CENTAUR R/B 3.0 20:18:09 10° SW 20:25:33 80° NW 20:32:42 10° NE
SPOT 3 Rocket 4.2 20:24:13 10° SE 20:29:01 43° ENE 20:33:52 10° N
USA 59 Rocket 2.4 20:28:26 10° N 20:29:41 11° NNE 20:31:02 10° NE
Cosmos 1782 3.3 20:26:08 10° SSW 20:29:54 59° WNW 20:33:41 10° N
IRS-1A Rocket 4.3 20:26:05 10° SSE 20:31:45 81° ENE 20:37:21 10° NNW
Meteor 1-26 Rocket 4.4 20:27:28 10° S 20:33:26 66° E 20:39:25 10° NNE
USA 281 3.7 20:27:38 10° SE 20:33:58 53° NE 20:40:20 10° NNW
Cosmos 1943 Rocket 3.2 20:28:53 10° NW 20:34:12 42° WSW 20:39:28 10° S
Cosmos 1420 Rocket 4.1 20:29:57 10° NNW 20:35:19 85° ENE 20:40:30 11° SSE
Cosmos 1743 3.1 20:35:04 10° N 20:38:33 43° ENE 20:41:25 14° SE
Cosmos 2278 Rocket 4.1 20:34:16 10° NW 20:38:45 25° WSW 20:43:14 10° SSW
ISS -3.1 20:36:15 10° WNW 20:39:32 55° N 20:42:49 10° E
NOSS 3-1 (A) 4.3 20:32:33 10° NW 20:39:48 72° SW 20:48:11 11° SSE
Cosmos 972 4.4 20:35:26 10° SSW 20:40:20 88° WNW 20:45:19 10° NNE
USA 245 1.9 20:42:40 17° SSE 20:44:14 66° ENE 20:46:28 10° N
SL-24 R/B - RUBIN 2 4.5 20:39:56 10° SSW 20:46:01 68° SE 20:52:39 10° NE
Cosmos 2297 3.8 20:40:39 10° NNW 20:46:26 77° ENE 20:51:24 14° SE
Cosmos 1634 Rocket 4.2 20:40:43 10° N 20:46:58 62° ENE 20:52:38 13° SSE
Cosmos 2112 Rocket 4.0 20:44:28 10° SSW 20:49:46 69° ESE 20:55:03 10° NNE
USA 290 3.1 20:47:41 10° NW 20:50:47 45° WSW 20:53:34 12° S
Cosmos 1766 Rocket 3.6 20:47:15 10° N 20:51:42 73° E 20:55:32 14° SSE
Okean-O 4.0 20:47:44 10° SSW 20:51:48 36° W 20:55:54 10° NNW
USA 229 DEB 4.1 20:47:24 10° NW 20:54:43 72° NE 21:01:46 14° SE
USA 229 4.1 20:47:30 10° NW 20:54:49 72° NE 21:01:53 14° SE
Cosmos 2034 Rocket 4.4 20:49:47 10° NNW 20:55:56 66° W 21:02:06 10° S
Cosmos 1726 3.0 20:54:20 10° NNE 20:57:04 26° ENE 20:58:35 18° ESE
Spot 2 Rocket 3.5 20:54:06 13° SSE 20:58:34 82° ENE 21:03:38 10° NNW
Cosmos 1680 Rocket 3.6 20:54:42 10° SSW 21:00:00 86° WNW 21:05:19 10° NNE
Meteor 2-6 Rocket 4.3 20:58:38 10° S 21:04:09 59° E 21:09:34 10° NNE
USA 32 4.0 21:01:23 10° S 21:06:35 80° E 21:11:50 10° N
Tsikada Rocket 4.0 21:02:51 10° S 21:09:02 86° W 21:15:20 10° N
Sich 1 4.4 21:09:47 10° NNE 21:13:31 27° ENE 21:15:51 17° ESE
Helios 1B 4.5 21:09:26 10° NNE 21:13:46 79° ESE 21:17:56 11° S
MetOp-A 4.0 21:11:24 20° SE 21:14:19 56° ENE 21:18:59 10° N
USA 276 1.2 21:12:31 10° W 21:14:44 65° SSW 21:15:14 44° SE
SL-16 R/B 2.3 21:09:45 10° SSW 21:15:26 81° WNW 21:21:10 10° NNE
Cosmos 2263 4.3 21:10:14 10° NNW 21:15:56 74° ENE 21:20:00 20° SE
MOS 1 Rocket 3.5 21:13:56 17° SSE 21:17:50 90° W 21:23:07 10° NNW
Cosmos 2056 Rocket 4.1 21:13:54 10° NNW 21:19:09 53° WSW 21:23:28 15° S
Lacrosse 5 2.9 21:15:22 10° WNW 21:19:57 34° SW 21:23:08 18° S
Cosmos 1536 3.3 21:16:34 10° N 21:20:19 44° ENE 21:22:15 24° SE
Ariane Rocket 3.2 21:16:49 15° S 21:21:02 67° WSW 21:26:07 10° NNW
Lacrosse 5 rocket 1.9 21:17:08 10° WSW 21:21:24 63° NNW 21:25:35 10° NE
Cosmos 1452 Rocket 3.8 21:18:11 10° NNW 21:23:23 58° ENE 21:26:45 21° SE
Cosmos 1408 Rocket 3.9 21:19:22 10° N 21:23:43 51° ENE 21:26:12 24° SE
Cosmos 44 3.9 21:19:12 10° NW 21:23:50 45° WSW 21:26:45 19° S
Spot 1 3.9 21:20:47 10° NNE 21:24:49 63° ESE 21:27:36 20° S
Meteor 1-27 Rocket 4.5 21:22:18 20° SE 21:25:14 34° E 21:30:09 10° NNE
Okean 1 4.1 21:25:59 25° SE 21:27:21 32° E 21:30:50 10° NNE
Cosmos 1340 4.2 21:25:00 10° NNE 21:27:38 21° ENE 21:28:49 17° E
Cosmos 2221 3.4 21:23:40 10° SSW 21:27:52 50° WNW 21:32:05 10° N
Cosmos 2369 Rocket 2.3 21:23:00 10° NNW 21:28:36 71° WSW 21:32:23 21° SSE
Cosmos 2084 3.8 21:28:35 10° NW 21:32:10 43° SW 21:33:53 26° S
FALCON 9 R/B 4.3 21:29:04 10° SW 21:35:24 35° S 21:53:48 10° ESE
USA 306 3.4 21:38:02 10° WNW 21:41:47 50° NNE 21:45:08 13° E
Cosmos 921 Rocket 3.5 21:38:29 10° SSW 21:42:55 62° WNW 21:47:24 10° NNE
Okean 3 Rocket 4.0 21:41:01 10° NNW 21:45:22 58° W 21:48:05 21° SSW
GEOS 3 Rocket 3.8 21:41:17 10° NE 21:46:29 74° NW 21:51:35 10° SW
ATLAS 3B R/B 4.1 21:44:42 10° NW 21:51:32 34° WSW 21:57:02 15° SSW
Landsat 5 3.4 21:48:45 10° N 21:52:31 71° WNW 21:54:55 21° SSW
SL-8 R/B 4.0 21:49:54 10° SW 21:54:20 41° SSE 21:58:48 10° E
Cosmos 1500 Rocket 3.4 21:51:45 10° N 21:56:06 81° E 21:57:58 33° SSE
Terra 3.4 21:52:39 11° SSW 21:56:29 27° W 22:00:32 10° NW
Cosmos 1943 3.1 21:53:56 15° SSW 21:58:45 76° ESE 22:04:26 10° NNE
Cosmos 1733 3.1 21:55:43 10° N 21:59:13 61° ENE 22:00:07 43° SE
ALOS 2 4.4 21:58:50 15° E 22:00:59 22° ENE 22:04:21 10° NNE
USA 234 4.0 21:55:03 10° E 22:01:22 53° NNE 22:07:41 10° WNW
Cosmos 1048 Rocket 3.9 21:59:00 16° SSW 22:03:13 87° WNW 22:08:22 10° NNE
H-2A R/B 3.3 22:02:30 27° ESE 22:04:05 38° ENE 22:08:00 10° N
Cosmos 1805 Rocket 3.5 22:00:37 10° N 22:05:01 83° ENE 22:06:48 36° SSE
Cosmos 1842 Rocket 4.4 22:01:41 14° SSW 22:05:18 48° WNW 22:09:37 10° N
Cosmos 494 Rocket 4.4 22:01:24 10° SW 22:06:27 63° WNW 22:11:33 10° NNE
Meteor 1-10 Rocket 4.4 22:02:23 17° SSW 22:06:52 77° WNW 22:12:33 10° N
Lacrosse 4 Rocket 3.6 22:04:24 10° N 22:07:23 19° NE 22:10:24 10° E
Cosmos 1151 Rocket 3.3 22:08:37 36° SE 22:09:58 50° E 22:14:11 10° NNE
Meteor 2-9 Rocket 4.3 22:05:55 10° NNW 22:11:44 82° W 22:14:55 29° S
Cosmos 1666 Rocket 4.5 22:08:55 10° N 22:12:57 36° ENE 22:14:23 28° ESE
Cosmos 1302 Rocket 4.1 22:09:36 10° NNW 22:14:48 66° ENE 22:17:12 31° SE
Meteor 1-11 Rocket 4.0 22:09:25 10° NNW 22:14:58 61° W 22:18:13 25° SSW
ISS -3.9 22:12:58 10° WNW 22:16:17 69° SSW 22:16:32 65° SSE
Cosmos 1633 Rocket 4.1 22:12:35 10° N 22:16:37 34° ENE 22:18:08 26° ESE
Meteor 2-10 4.2 22:11:17 10° NNW 22:16:55 76° W 22:19:41 30° S
ARIANE 5 R/B 2.5 22:16:04 39° SSE 22:17:41 80° ENE 22:22:01 10° NNW
Meteor 1-19 Rocket 4.3 22:14:06 26° S 22:17:41 84° E 22:23:31 10° NNE
Cosmos 1340 Rocket 2.7 22:17:22 44° SSE 22:18:29 70° E 22:22:29 10° NNE
USA 281 4.1 22:14:24 19° SSW 22:18:37 39° WSW 22:24:45 10° NW
USA 59 Rocket 0.8 22:16:35 10° NNW 22:20:09 44° NE 22:22:59 20° ESE
Cosmos 1331 Rocket 4.3 22:15:44 10° NNW 22:20:52 56° WSW 22:23:13 31° S
NOSS 2-1 (E) 4.3 22:17:26 10° NNW 22:21:01 44° NE 22:23:49 21° ESE
MINOTAUR 4 R/B 3.4 22:19:20 10° NNE 22:22:19 76° ESE 22:22:21 76° ESE
BREEZE-M DEB (TANK) 4.4 22:18:57 10° WSW 22:23:05 87° SSE 22:42:20 10° E
IRIDIUM 103 4.4 22:19:06 10° N 22:24:20 69° E 22:26:30 35° SSE
H-2A R/B 4.3 22:23:21 10° ENE 22:25:21 13° E 22:25:53 13° E
CZ-2C R/B 3.6 22:21:04 10° NNE 22:25:39 79° ESE 22:27:22 38° S
Cosmos 1726 3.9 22:27:56 10° NW 22:30:06 17° W 22:31:07 15° WSW
Cosmos 2195 Rocket 4.5 22:27:33 32° SSE 22:30:29 66° E 22:36:33 10° NNE
NOSS 2-1 (D) 3.9 22:29:00 10° NW 22:32:39 56° NE 22:34:55 28° ESE
Nadezhda 4 Rocket 4.0 22:30:39 25° SSW 22:34:26 78° W 22:40:43 10° N
Molniya-1 4.4 22:35:27 25° SSW 22:38:01 81° SE 22:49:22 10° NE
Cosmos 1805 3.0 22:35:48 10° N 22:39:31 84° W 22:40:09 60° S
IRIDIUM 106 4.3 22:37:24 10° N 22:42:40 86° W 22:44:46 38° S
Cosmos 1743 Rocket 4.4 22:42:14 10° NNW 22:46:22 41° W 22:47:56 30° SW
Sich 1 4.2 22:47:03 10° NNW 22:51:01 34° W 22:52:35 26° SW
Spot 2 4.3 22:50:57 43° SSE 22:52:24 75° ENE 22:57:12 10° NNW
Cosmos 1975 2.8 22:52:31 10° NNW 22:56:28 72° W 22:57:09 56° SSW
Lacrosse 5 rocket 3.4 22:56:36 10° WNW 23:00:20 29° N 23:04:00 10° NE
Cosmos 1603 4.1 22:57:29 17° SW 23:01:53 60° WNW 23:07:34 10° NNE
Cosmos 1340 3.8 22:58:59 10° NNW 23:01:55 27° W 23:02:14 27° WSW
Cosmos 1626 1.8 23:04:41 72° ENE 23:04:41 72° ENE 23:07:45 10° NNE
USA 267 3.3 23:00:49 10° ENE 23:07:14 56° SE 23:10:42 28° SSW
Cosmos 1674 3.7 23:07:50 29° E 23:07:50 29° E 23:10:44 10° NNE
NOSS 2-1 (C) 3.4 23:04:05 10° NW 23:07:53 80° SW 23:09:08 48° SSE
Cosmos 2369 Rocket 4.4 23:09:43 10° WNW 23:11:33 12° W 23:13:24 10° WSW
PSLV R/B 4.2 23:08:49 10° NNE 23:13:11 42° E 23:13:59 39° SE
Cosmos 2026 Rocket 4.1 23:12:23 31° SSW 23:15:35 72° W 23:21:53 10° N
USA 306 2.9 23:11:49 10° WNW 23:15:15 52° WSW 23:15:15 52° WSW
Cosmos 1833 Rocket 3.7 23:17:10 28° SE 23:18:17 30° ESE 23:23:07 10° NE
NOSS 3-3 (C) 4.1 23:26:06 39° SSE 23:27:24 45° ESE 23:33:22 10° NE
SL-24 R/B 4.3 23:26:02 10° NNE 23:30:27 66° ESE 23:31:32 49° SSE
Cosmos 220 Rocket 4.0 23:30:05 49° SW 23:31:12 76° WNW 23:35:32 10° NNE
Cosmos 1515 Rocket 3.5 23:31:37 56° SSE 23:32:23 72° E 23:36:44 10° NNE
Cosmos 1328 Rocket 4.0 23:33:11 39° SW 23:34:22 53° WNW 23:38:38 10° N
GP-B 4.1 23:30:45 10° NNE 23:34:49 35° E 23:35:54 30° ESE
SL-8 R/B 3.5 23:31:44 10° WSW 23:36:30 79° S 23:41:17 10° E
ALOS 2 3.0 23:36:13 43° SW 23:37:01 49° W 23:41:18 10° NNW
Cosmos 1553 Rocket 3.9 23:31:09 10° NNW 23:37:14 76° W 23:39:39 39° S
H-2A R/B 4.0 23:38:30 22° WSW 23:39:10 23° W 23:42:33 10° NW
Cosmos 1470 Rocket 3.8 23:36:30 10° NNW 23:40:54 57° W 23:41:47 47° SW
Cosmos 1869 Rocket 4.2 23:37:33 10° N 23:41:46 47° ENE 23:42:58 37° ESE
USA 234 3.2 23:38:50 17° SE 23:44:12 82° SW 23:50:47 10° WNW
Lacrosse 4 Rocket 1.2 23:42:03 10° NW 23:46:06 71° WSW 23:46:29 65° SSW
Cosmos 1633 Rocket 4.4 23:50:29 10° NNW 23:54:13 28° W 23:55:08 25° WSW
